User: anonymous   Login
Location: Camp Creek
(33.9000°N, 111.8167°W)
Time: 07:54:50
(UTC-07:00)
Language:

Cosmos 2322 Rocket - Orbit

View from above orbital plane
View from above orbital plane
View from above satellite
View from above satellite

Ground track
Ground track

The orbit data is extracted from the following two-line orbital elements,

1 23705U 95058B   18110.44538287  .00000159  00000-0  10651-3 0  9997
2 23705  71.0186 104.3838 0013230 198.9111 161.1523 14.15112684160658
Epoch (UTC): 20 April 2018 10:41:21
Eccentricity: 0.0013230
inclination: 71.0186°
perigee height: 832 km
apogee height: 851 km
right ascension of ascending node: 104.3838°
argument of perigee: 198.9111°
revolutions per day: 14.15112684
mean anomaly at epoch: 161.1523°
orbit number at epoch: 16065

The dashed part of the orbit path shows where the satellite is in the earth's shadow,  

DLR